Skip Page Navigation
NASA JPL Caltech
NASA Logo - Jet Propulsion Laboratory + View the NASA Portal
+ Center for Near-Earth Object Studies
JPL Home Earth Solar System Stars & Galaxies Technology
JPL Solar System Dynamics
BODIES ORBITS EPHEMERIDES TOOLS PHYSICAL DATA DISCOVERY FAQ SITE MAP
JPL Small-Body Database Browser
Search: [ help ]  
134252 (2006 AK41)
Classification: Main-belt Asteroid          SPK-ID: 2134252
Ephemeris | Orbit Diagram | Orbital Elements | Mission Design | Physical Parameters | Discovery Circumstances | Close-Approach Data ]

[ show orbit diagram ]
Orbital Elements at Epoch 2459000.5 (2020-May-31.0) TDB
Reference: JPL 16 (heliocentric ecliptic J2000)
 Element Value Uncertainty (1-sigma)   Units 
e .1135124210221018 3.8696e-08  
a 2.314788234218463 8.632e-09 au
q 2.052031017598849 9.0837e-08 au
i 4.172420652975507 4.115e-06 deg
node 159.4324188653802 5.6555e-05 deg
peri 337.2428899646247 5.9882e-05 deg
M 21.15789707139665 1.8369e-05 deg
tp 2458924.897644722506
(2020-Mar-16.39764472)
6.561e-05 TDB
period 1286.368291142327
3.52
7.1954e-06
1.97e-08
d
yr
n .279857644563293 1.5654e-09 deg/d
Q 2.577545450838076 9.6118e-09 au
  Orbit Determination Parameters
   # obs. used (total)      597  
   data-arc span      8288 days (22.69 yr)  
   first obs. used      1997-08-12  
   last obs. used      2020-04-21  
   planetary ephem.      DE431  
   SB-pert. ephem.      SB431-N16  
   condition code      0  
   norm. resid. RMS      .57243  
   source      ORB  
   producer      Otto Matic  
   solution date      2020-May-20 22:17:54  

Additional Information
 Earth MOID = 1.06626 au 
 Jupiter MOID = 2.44036 au 
 T_jup = 3.570 
[ show covariance matrix ]

Ephemeris | Orbit Diagram | Orbital Elements | Mission Design | Physical Parameters | Discovery Circumstances | Close-Approach Data ]

Physical Parameter Table
Parameter Symbol Value Units Sigma Reference Notes
absolute magnitude H 16.5   n/a MPO260068  

134252 (2006 AK41)          Discovered 2006-Jan-03 by LINEAR at Socorro
Reference: 20060711/Numbers.arcLast Updated: 2006-07-17

[ show close-approach data ]
Alternate Designations
 2006 AK41 = 1999 CC108 = 2004 RT38 
Ephemeris | Orbit Diagram | Orbital Elements | Mission Design | Physical Parameters | Discovery Circumstances | Close-Approach Data ]
ABOUT SSD CREDITS/AWARDS PRIVACY/COPYRIGHT GLOSSARY LINKS
FirstGov 2020-Oct-28 02:07 UT
(server date/time)  
NASA Home Page
Site Manager:   Ryan S. Park
Webmaster  Alan B. Chamberlin